Location: *
(45.1333°S, 169.6333°W)
Time: 12:07:19
(UTC+00:00)

Cosmos 1302 Rocket - Visible Passes

Search period start: 26 September 2022 00:00
Search period end: 06 October 2022 00:00
Orbit: 755 x 776 km, 74.0° (Epoch: 25 September)

Date Brightness Start Highest point End Pass type
(mag) Time Alt. Az. Time Alt. Az. Time Alt. Az.
26 Sep 6.6 07:11:21 10° WNW 07:15:21 22° SW 07:19:23 10° S visible
26 Sep 6.4 14:12:01 10° S 14:16:04 22° SE 14:20:06 10° ENE visible
26 Sep 4.0 15:53:20 10° SSW 15:58:31 59° WNW 16:03:39 10° N visible
27 Sep 5.9 06:32:39 10° WNW 06:37:22 33° WSW 06:42:08 10° S visible
27 Sep 6.9 13:35:09 10° SSE 13:37:58 14° SE 13:40:46 10° E visible
27 Sep 4.0 15:15:34 10° SSW 15:20:52 83° ESE 15:26:06 10° NNE visible
28 Sep 5.0 05:54:23 10° NW 05:59:31 54° WSW 06:04:41 10° SSE visible
28 Sep 4.9 14:37:57 10° SSW 14:43:06 50° ESE 14:48:12 10° NE visible
28 Sep 5.1 16:20:43 10° SW 16:24:44 23° W 16:28:45 10° NNW visible
29 Sep 7.0 07:01:37 10° W 07:04:36 15° SW 07:07:36 10° SSW visible
29 Sep 5.7 14:00:32 10° S 14:05:13 31° ESE 14:09:53 10° ENE visible
29 Sep 4.5 15:42:27 10° SW 15:47:17 38° WNW 15:52:06 10° NNW visible
30 Sep 6.6 06:22:23 10° WNW 06:26:30 23° SW 06:30:40 10° S visible
30 Sep 6.4 13:23:19 10° S 13:27:14 21° SE 13:31:07 10° E visible
30 Sep 3.9 15:04:30 10° SSW 15:09:44 64° WNW 15:14:55 10° N visible
01 Oct 6.9 12:46:32 10° SSE 12:49:06 13° SE 12:51:39 10° ESE visible
01 Oct 4.1 14:26:46 10° SSW 14:32:04 77° ESE 14:37:19 10° NNE visible
01 Oct 5.6 16:10:37 10° WSW 16:13:21 14° W 16:16:05 10° NW visible
02 Oct 7.4 06:53:05 10° SW 06:53:56 10° SW 06:54:48 10° SW visible
02 Oct 4.9 13:49:11 10° S 13:54:17 47° ESE 13:59:21 10° NE visible
02 Oct 5.0 15:31:48 10° SW 15:36:00 24° W 15:40:09 10° NNW visible
03 Oct 6.9 06:12:32 10° W 06:15:44 16° SW 06:18:57 10° SSW visible
03 Oct 5.8 13:11:46 10° S 13:16:23 29° ESE 13:20:29 12° ENE visible
03 Oct 4.3 14:53:36 10° SW 14:58:31 41° WNW 15:00:27 29° NNW visible
04 Oct 6.4 12:34:36 10° S 12:38:22 19° SE 12:41:05 14° E visible
04 Oct 3.8 14:15:41 10° SSW 14:20:56 69° WNW 14:21:11 68° NW visible
05 Oct 6.8 11:57:56 10° SSE 12:00:13 13° SE 12:02:30 10° ESE visible
05 Oct 4.2 13:37:58 10° SSW 13:42:52 68° SSE 13:42:52 68° SSE visible
05 Oct 5.8 15:21:35 10° WSW 15:23:00 14° WSW 15:23:00 14° WSW visible
